Location: Pulvis Stellarum Observatory
(41.6962°N, 71.4263°W)
Time: 15:11:17
(UTC-04:00)

Cosmos 1758 - Visible Passes

Search period start: 29 May 2016 00:00
Search period end: 08 June 2016 00:00
Orbit: 543 x 565 km, 82.5° (Epoch: 28 May)

Date Brightness Start Highest point End Pass type
(mag) Time Alt. Az. Time Alt. Az. Time Alt. Az.
29 May 5.5 21:31:32 10° NE 21:33:39 14° ENE 21:35:06 12° E visible
29 May 4.0 23:06:30 10° NNW 23:10:27 47° W 23:10:56 44° WSW visible
30 May 5.3 21:28:20 10° NNE 21:30:49 15° ENE 21:32:26 13° E visible
30 May 4.2 23:03:40 10° NNW 23:07:32 41° W 23:08:15 37° WSW visible
31 May 5.2 21:25:11 10° NNE 21:27:58 17° ENE 21:29:46 14° ESE visible
31 May 4.5 23:00:50 10° NNW 23:04:37 36° W 23:05:36 31° WSW visible
01 Jun 5.1 21:22:06 10° NNE 21:25:07 19° ENE 21:27:08 14° ESE visible
01 Jun 4.8 22:58:02 10° NNW 23:01:41 31° W 23:02:57 26° SW visible
02 Jun 4.9 21:19:01 10° NNE 21:22:15 22° ENE 21:24:30 14° ESE visible
02 Jun 5.0 22:55:14 10° NNW 22:58:45 28° W 23:00:20 21° SW visible
03 Jun 4.7 21:15:59 10° NNE 21:19:24 24° ENE 21:21:53 14° ESE visible
03 Jun 5.2 22:52:28 10° NW 22:55:49 24° W 22:57:43 18° SW visible
04 Jun 4.6 21:12:58 10° NNE 21:16:31 27° ENE 21:19:18 14° SE visible
04 Jun 5.4 22:49:42 10° NW 22:52:53 22° W 22:55:08 14° SW visible
05 Jun 4.4 21:09:57 10° NNE 21:13:39 31° ENE 21:16:44 13° SE visible
05 Jun 5.6 22:46:59 10° NW 22:49:56 19° W 22:52:33 11° SW visible
06 Jun 4.2 21:06:58 10° N 21:10:47 35° ENE 21:14:11 12° SE visible
06 Jun 5.8 22:44:18 10° NW 22:46:59 17° W 22:49:39 10° SW visible
07 Jun 4.0 21:04:00 10° N 21:07:53 40° ENE 21:11:39 11° SSE visible
07 Jun 6.0 22:41:39 10° NW 22:44:02 15° W 22:46:23 10° WSW visible
